This is the latest recevied weather packets stored in our database for station/object N7WSS. If no packets are shown the sender has not sent any weather packets the latest 1 day(s).
| Time | Temp. | Humidity | Pressure | Rain* | Wind** | Luminosity | Snow |
|---|---|---|---|---|---|---|---|
| 1778060553 | 11.11° C | 72% | 1012.8 hPa | 0 mm | - | - | - |
| 1778059646 | 11.11° C | 73% | 1012.6 hPa | 0 mm | - | - | - |
| 1778059041 | 11.11° C | 71% | 1012.5 hPa | 0 mm | - | - | - |
| 1778058738 | 11.67° C | 70% | 1012.6 hPa | 0 mm | - | - | - |
| 1778058436 | 11.67° C | 72% | 1012.7 hPa | 0 mm | - | - | - |
| 1778056919 | 12.78° C | 63% | 1012.7 hPa | 0 mm | - | - | - |
| 1778056011 | 12.78° C | 63% | 1012.8 hPa | 0 mm | - | - | - |
| 1778055409 | 12.78° C | 66% | 1012.7 hPa | 0 mm | - | - | - |
| 1778055107 | 12.78° C | 65% | 1012.8 hPa | 0 mm | - | - | - |
| 1778054804 | 12.78° C | 65% | 1012.8 hPa | 0 mm | - | - | - |
| 1778053895 | 12.78° C | 63% | 1012.9 hPa | 0 mm | - | - | - |
| 1778053593 | 12.78° C | 63% | 1012.7 hPa | 0 mm | - | - | - |
| 1778053290 | 12.78° C | 63% | 1012.8 hPa | 0 mm | - | - | - |
| 1778052685 | 13.33° C | 63% | 1012.7 hPa | 0 mm | - | - | - |
| 1778052381 | 13.33° C | 63% | 1012.9 hPa | 0 mm | - | - | - |
| 1778051777 | 13.33° C | 62% | 1012.8 hPa | 0 mm | - | - | - |
| 1778051474 | 13.33° C | 63% | 1012.7 hPa | 0 mm | - | - | - |
| 1778051171 | 13.89° C | 64% | 1012.8 hPa | 0 mm | - | - | - |
| 1778050868 | 13.89° C | 64% | 1012.6 hPa | 0 mm | - | - | - |
| 1778049050 | 14.44° C | 61% | 1012.5 hPa | 0 mm | - | - | - |
| 1778048141 | 15° C | 60% | 1012.6 hPa | 0 mm | - | - | - |
| 1778047839 | 15° C | 58% | 1012.5 hPa | 0 mm | - | - | - |
| 1778047234 | 15° C | 57% | 1012.6 hPa | 0 mm | - | - | - |
| 1778046931 | 15.56° C | 57% | 1012.7 hPa | 0 mm | - | - | - |
| 1778046325 | 15.56° C | 56% | 1012.5 hPa | 0 mm | - | - | - |
* Rain latest hour (hover to see other rain measurements)
** Current wind speed in m/s (hover to see current wind gust speed)